METAR Formatted Surface Weather Observation
Issued by NWS Honolulu, HI

Home | Current Version | Previous Version | Text Only | Print | Product List | Glossary On
Versions: 1 2 3 4 5 6 7 8 9 10 11 12 13 14 15 16 17 18 19 20 21 22 23 24 25 26 27 28 29 30 31 32 33 34 35 36 37 38 39 40 41 42 43 44 45 46 47 48 49 50
000
SAHW31 PHFO 030054
MTRITO
METAR PHTO 030053Z 21005KT 10SM -RA FEW014 BKN055 OVC090 21/20 A3002
RMK AO2 SLP163 P0011 T02060200 $


USA.gov is the U.S. government's official web portal to all federal, state and local government web resources and services.